Location: Arrodets-la-Barthe
(43.0306°N, 0.2829°E)
Time: 11:01:04
(UTC+00:00)

Iridium 4 Rocket - Pass Details

Date: 02 June 2022
Orbit: 585 x 902 km, 86.9° (Epoch: 01 July)

Event Time Altitude Azimuth Distance (km) Brightness Sun altitude
Rises 23:42:25 0° 337° (NNW) 3,120 7.8 -24.6°
Reaches altitude 10° 23:45:41 10° 313° (NW) 2,264 6.5 -24.6°
Maximum altitude 23:48:16 14° 282° (WNW) 2,033 5.8 -24.7°
Enters shadow 23:50:23 11° 257° (WSW) 2,250 5.8 -24.7°
